DW8397 Weather Reports


time (UTC)temp
F
wind
direction
speed
knots
gust
knots
rain 1hr
in
rain 24hr
in
rain mn
in
humidity
%
barometer
mb
20260903200009 75 218 0.0 6.1 0.00 0.01 0.01 82 1010.7
20260903194507 75 189 0.0 7.0 0.00 0.01 0.01 81 1010.7
20260903193006 75 260 0.0 7.0 0.00 0.01 0.01 80 1010.9
20260903191503 75 192 1.7 11.3 0.00 0.01 0.01 83 1011.0
20260903190059 72 188 1.7 8.7 0.00 0.01 0.01 86 1011.0
20260903184555 70 198 1.7 11.3 0.00 0.01 0.01 87 1011.2
20260903183051 67 144 0.0 0.0 0.00 0.01 0.01 86 1011.2
20260903181548 66 145 0.0 0.0 0.00 0.01 0.01 86 1011.5
20260903180047 66 145 0.0 0.0 0.00 0.01 0.01 86 1011.7
20260903174544 66 146 0.0 0.0 0.00 0.01 0.01 86 1011.7
20260903173044 65 148 0.0 0.0 0.00 0.01 0.01 86 1011.7
20260903171540 64 147 0.0 0.0 0.00 0.01 0.01 86 1012.0
20260903170051 64 147 0.0 0.0 0.00 0.01 0.01 86 1012.0
20260903164535 64 148 0.0 0.0 0.00 0.01 0.01 86 1012.1
20260903163034 64 148 0.0 0.0 0.00 0.01 0.01 86 1012.3
20260903161535 63 148 0.0 0.0 0.00 0.01 0.01 86 1012.3
20260903160032 63 148 0.0 0.0 0.00 0.01 0.01 87 1012.4
20260903154535 63 148 0.0 0.0 0.00 0.01 0.01 87 1012.4
20260903153026 62 148 0.0 0.0 0.00 0.01 0.01 87 1012.5
20260903151524 61 148 0.0 0.0 0.00 0.01 0.01 87 1012.6
20260903150023 60 148 0.0 0.0 0.00 0.01 0.01 87 1012.8
20260903144523 60 148 0.0 0.0 0.00 0.01 0.01 87 1012.8
20260903143020 60 148 0.0 0.0 0.00 0.01 0.01 87 1012.7
20260903141531 59 148 0.0 0.0 0.00 0.01 0.01 87 1012.8
20260903140017 59 148 0.0 0.0 0.00 0.01 0.01 87 1012.9
20260903134516 58 148 0.0 0.0 0.00 0.01 0.01 87 1013.0
20260903133016 58 148 0.0 0.0 0.00 0.01 0.01 87 1012.9
20260903131515 58 148 0.0 0.0 0.00 0.01 0.01 87 1013.0
20260903130015 58 148 0.0 0.0 0.01 0.01 0.01 87 1013.0
20260903124517 58 148 0.0 0.0 0.01 0.01 0.01 88 1013.0
20260903123013 58 148 0.0 0.0 0.01 0.01 0.01 88 1013.2
20260903121512 58 148 0.0 0.0 0.01 0.01 0.01 88 1013.1
20260903120013 58 148 0.0 0.0 0.00 0.00 0.00 88 1013.2
20260903114511 58 148 0.0 0.0 0.00 0.00 0.00 88 1013.3
20260903113010 58 148 0.0 0.0 0.00 0.00 0.00 88 1013.3
20260903111513 58 148 0.0 0.0 0.00 0.00 0.00 88 1013.4
20260903110009 58 148 0.0 0.0 0.00 0.00 0.00 88 1013.4
20260903104509 58 148 0.0 0.0 0.00 0.00 0.00 88 1013.3
20260903103004 58 148 0.0 0.0 0.00 0.00 0.00 88 1013.3
20260903101502 58 148 0.0 0.0 0.00 0.00 0.00 88 1013.1
20260903100002 59 148 0.0 0.0 0.00 0.00 0.00 88 1013.2
20260903094606 59 148 0.0 0.0 0.00 0.00 0.00 88 1013.2
20260903093106 59 148 0.0 0.0 0.00 0.00 0.00 88 1013.2
20260903091557 59 148 0.0 0.0 0.00 0.00 0.00 88 1013.3
20260903090057 59 148 0.0 0.0 0.00 0.00 0.00 88 1013.4
20260903084558 59 148 0.0 0.0 0.00 0.00 0.00 88 1013.3
20260903083058 60 148 0.0 0.0 0.00 0.00 0.00 88 1013.5
20260903081612 60 148 0.0 0.0 0.00 0.00 0.00 88 1014.0
20260903080051 60 148 0.0 0.0 0.00 0.00 0.00 88 1013.9
20260903074554 60 148 0.0 0.0 0.00 0.00 0.00 88 1013.7
20260903073049 60 154 0.0 0.0 0.00 0.00 0.00 88 1013.9
20260903071553 60 153 0.0 0.0 0.00 0.00 0.00 88 1014.0
20260903070046 60 186 0.0 0.0 0.00 0.00 0.00 88 1014.1
20260903064549 60 150 0.0 4.3 0.00 0.00 0.00 88 1014.2
20260903063048 60 159 0.0 3.5 0.00 0.00 0.00 88 1014.1
20260903061540 61 202 0.0 0.0 0.00 0.00 0.00 88 1014.5
20260903060042 61 187 0.0 6.1 0.00 0.00 0.00 88 1014.7
20260903054535 61 146 0.0 0.0 0.00 0.00 0.00 88 1015.0
20260903053037 62 181 0.0 0.0 0.00 0.00 0.00 87 1015.4
20260903051532 62 170 1.7 7.0 0.00 0.00 0.00 87 1015.4
20260903050041 62 188 0.9 7.8 0.00 0.00 0.00 86 1015.5
20260903044530 62 163 0.9 4.3 0.00 0.00 0.00 85 1015.5
20260903043027 62 92 0.0 0.9 0.00 0.00 0.00 84 1015.5
20260903041526 62 217 1.7 10.4 0.00 0.00 0.00 84 1015.3
20260903040024 63 145 2.6 10.4 0.00 0.00 0.00 83 1015.4
20260903034524 63 153 1.7 5.2 0.00 0.01 0.00 82 1016.0
20260903033018 63 122 0.0 10.4 0.00 0.01 0.00 81 1016.1
20260903031516 63 226 0.0 6.1 0.00 0.01 0.00 82 1016.3
20260903030016 63 178 0.9 6.1 0.00 0.01 0.00 83 1016.6
20260903024515 63 207 0.0 6.1 0.00 0.01 0.00 83 1016.5
20260903023024 63 171 0.0 6.1 0.00 0.01 0.00 84 1016.8
20260903021518 63 138 1.7 11.3 0.00 0.01 0.00 84 1016.7
20260903020040 64 180 0.9 8.7 0.00 0.01 0.00 85 1017.0
20260903014514 64 136 0.9 5.2 0.00 0.01 0.00 86 1017.2
20260903013013 64 188 3.5 10.4 0.00 0.01 0.00 87 1017.2
20260903011512 64 172 1.7 13.9 0.00 0.01 0.00 87 1017.3
20260903010012 64 177 0.9 6.1 0.00 0.01 0.00 87 1017.6
20260903004511 64 184 1.7 6.1 0.00 0.01 0.00 87 1017.5
20260903003011 64 170 0.0 6.1 0.00 0.01 0.00 86 1017.0
20260903001510 64 130 1.7 4.3 0.00 0.01 0.00 86 1017.1
20260903000010 64 158 0.0 7.8 0.00 0.01 0.00 87 1016.4
20260902234508 64 167 1.7 10.4 0.00 0.01 0.00 87 1016.7
20260902233009 64 147 0.0 6.1 0.00 0.01 0.00 87 1016.9
20260902231509 64 184 0.0 8.7 0.00 0.01 0.00 87 1017.4
20260902230001 64 170 1.7 7.0 0.00 0.01 0.00 87 1017.9
20260902224601 64 169 0.0 3.5 0.00 0.01 0.00 87 1018.3
20260902223059 64 169 0.0 3.5 0.00 0.01 0.00 87 1018.7
20260902221701 64 182 0.0 0.0 0.00 0.01 0.00 87 1018.7
20260902214558 64 171 0.0 0.0 0.00 0.01 0.00 87 1019.1
20260902213058 64 163 0.0 0.0 0.00 0.01 0.00 87 1018.9
20260902211600 64 134 0.0 6.1 0.00 0.01 0.00 87 1018.7
20260902210057 64 181 0.0 7.0 0.00 0.01 0.00 87 1018.9
20260902204612 64 134 0.0 3.5 0.00 0.01 0.00 87 1018.8
20260902203057 64 164 0.0 0.9 0.00 0.01 0.00 86 1018.9
20260902201555 64 177 0.9 5.2 0.00 0.01 0.00 86 1018.7